Location: �quirre
(50.4736°N, 2.2351°E)
Time: 21:32:24
(UTC+00:00)

NOSS 3-1 (C) - Pass Details

Date: 07 August 2020
Orbit: 744 x 1464 km, 63.4° (Epoch: 17 September)

Event Time Altitude Azimuth Distance (km) Brightness Sun altitude
Exits shadow 02:17:31 16° 173° (S) 1,988 4.7 -16.4°
Maximum altitude 02:21:09 34° 116° (ESE) 1,390 4.4 -16.1°
Drops below altitude 10° 02:26:42 10° 54° (NE) 2,727 7.1 -15.6°
Sets 02:29:43 0° 46° (NE) 3,800 8.4 -15.3°
